LA METEO DE GRANDFRESNOY - OISE - (60) - ALT.75 m
Donnes mto: Actuelle mardi, 26/03/2019 03:28
Date Horaire Temp. E. Hum. E. P.atmo. Pluie Vent Direction Direction Ensoleilleme Horaire Temp Ev.Tr. UV Ray;solaire P. de rose Temp au vent Rafales Rception
26/03/2019 03:28 6,7 C 79 % 1033,1 hPa 0,0 mm 1,7 km/h (1 Bft) N-NE 16 0 min 0 min 0,000 mm 0,0 UV-I 0 W/m 3,3 C 6,7 C 3,5 km/h (1 Bft) 100,00 %
26/03/2019 03:27 6,8 C 79 % 1033,1 hPa 0,0 mm 2,4 km/h (1 Bft) N-NE 16 0 min 0 min 0,000 mm 0,0 UV-I 0 W/m 3,4 C 6,8 C 3,5 km/h (1 Bft) 93,33 %
26/03/2019 03:26 6,8 C 79 % 1033,1 hPa 0,0 mm 0,8 km/h (0 Bft) N-NE 17 0 min 0 min 0,000 mm 0,0 UV-I 0 W/m 3,4 C 6,8 C 1,8 km/h (1 Bft) 100,00 %
26/03/2019 03:25 6,8 C 79 % 1033,1 hPa 0,0 mm 2,8 km/h (1 Bft) N-NE 15 0 min 0 min 0,000 mm 0,0 UV-I 0 W/m 3,4 C 6,8 C 5,3 km/h (1 Bft) 100,00 %
26/03/2019 03:24 6,8 C 79 % 1033,1 hPa 0,0 mm 3,2 km/h (1 Bft) N 9 0 min 0 min 0,000 mm 0,0 UV-I 0 W/m 3,4 C 6,8 C 7,1 km/h (2 Bft) 100,00 %
26/03/2019 03:23 6,8 C 79 % 1033,1 hPa 0,0 mm 4,4 km/h (1 Bft) N-NE 20 0 min 0 min 0,000 mm 0,0 UV-I 0 W/m 3,4 C 6,8 C 7,1 km/h (2 Bft) 100,00 %
26/03/2019 03:22 6,8 C 79 % 1033,1 hPa 0,0 mm 5,7 km/h (2 Bft) N-NE 18 0 min 0 min 0,000 mm 0,0 UV-I 0 W/m 3,4 C 6,8 C 7,1 km/h (2 Bft) 100,00 %
26/03/2019 03:21 6,8 C 79 % 1033,1 hPa 0,0 mm 6,2 km/h (2 Bft) N-NE 21 0 min 0 min 0,000 mm 0,0 UV-I 0 W/m 3,4 C 6,8 C 8,9 km/h (2 Bft) 100,00 %
26/03/2019 03:20 6,8 C 79 % 1033,1 hPa 0,0 mm 4,7 km/h (1 Bft) N-NE 26 0 min 0 min 0,000 mm 0,0 UV-I 0 W/m 3,4 C 6,8 C 7,1 km/h (2 Bft) 100,00 %
26/03/2019 03:19 6,8 C 79 % 1033,2 hPa 0,0 mm 5,3 km/h (1 Bft) N-NE 12 0 min 0 min 0,000 mm 0,0 UV-I 0 W/m 3,4 C 6,8 C 8,9 km/h (2 Bft) 100,00 %
26/03/2019 03:18 6,8 C 78 % 1033,1 hPa 0,0 mm 6,6 km/h (2 Bft) N 9 0 min 0 min 0,000 mm 0,0 UV-I 0 W/m 3,2 C 6,7 C 10,6 km/h (2 Bft) 100,00 %
26/03/2019 03:17 6,8 C 79 % 1033,2 hPa 0,0 mm 9,7 km/h (2 Bft) N-NE 17 0 min 0 min 0,000 mm 0,0 UV-I 0 W/m 3,4 C 4,3 C 15,9 km/h (3 Bft) 100,00 %
26/03/2019 03:16 6,8 C 79 % 1033,1 hPa 0,0 mm 10,6 km/h (2 Bft) N 355 0 min 0 min 0,000 mm 0,0 UV-I 0 W/m 3,4 C 3,7 C 15,9 km/h (3 Bft) 95,83 %
26/03/2019 03:15 6,8 C 79 % 1033,2 hPa 0,0 mm 6,2 km/h (2 Bft) N-NE 30 0 min 0 min 0,000 mm 0,0 UV-I 0 W/m 3,4 C 6,8 C 14,2 km/h (3 Bft) 100,00 %
26/03/2019 03:14 6,8 C 79 % 1033,2 hPa 0,0 mm 9,5 km/h (2 Bft) N-NE 17 0 min 0 min 0,000 mm 0,0 UV-I 0 W/m 3,4 C 4,4 C 17,7 km/h (3 Bft) 100,00 %
26/03/2019 03:13 6,8 C 79 % 1033,3 hPa 0,0 mm 12,3 km/h (2 Bft) N-NE 16 0 min 0 min 0,000 mm 0,0 UV-I 0 W/m 3,4 C 2,7 C 17,7 km/h (3 Bft) 100,00 %
26/03/2019 03:12 6,8 C 79 % 1033,3 hPa 0,0 mm 12,2 km/h (2 Bft) N 5 0 min 0 min 0,000 mm 0,0 UV-I 0 W/m 3,4 C 2,7 C 17,7 km/h (3 Bft) 100,00 %
26/03/2019 03:11 6,8 C 79 % 1033,3 hPa 0,0 mm 7,5 km/h (2 Bft) N 5 0 min 0 min 0,000 mm 0,0 UV-I 0 W/m 3,4 C 5,9 C 12,4 km/h (2 Bft) 100,00 %
26/03/2019 03:10 6,8 C 79 % 1033,3 hPa 0,0 mm 6,3 km/h (2 Bft) N-NE 33 0 min 0 min 0,000 mm 0,0 UV-I 0 W/m 3,4 C 6,8 C 14,2 km/h (3 Bft) 95,65 %
26/03/2019 03:09 6,8 C 79 % 1033,2 hPa 0,0 mm 6,0 km/h (2 Bft) N-NE 22 0 min 0 min 0,000 mm 0,0 UV-I 0 W/m 3,4 C 6,8 C 8,9 km/h (2 Bft) 100,00 %
26/03/2019 03:08 6,8 C 79 % 1033,2 hPa 0,0 mm 9,5 km/h (2 Bft) N-NE 26 0 min 0 min 0,000 mm 0,0 UV-I 0 W/m 3,4 C 4,4 C 14,2 km/h (3 Bft) 100,00 %
26/03/2019 03:07 6,8 C 79 % 1033,2 hPa 0,0 mm 9,2 km/h (2 Bft) N-NE 21 0 min 0 min 0,000 mm 0,0 UV-I 0 W/m 3,4 C 4,6 C 17,7 km/h (3 Bft) 100,00 %
26/03/2019 03:06 6,8 C 79 % 1033,2 hPa 0,0 mm 7,3 km/h (2 Bft) N-NE 12 0 min 0 min 0,000 mm 0,0 UV-I 0 W/m 3,4 C 6,1 C 8,9 km/h (2 Bft) 96,77 %
26/03/2019 03:05 6,8 C 79 % 1033,2 hPa 0,0 mm 10,5 km/h (2 Bft) N-NE 18 0 min 0 min 0,000 mm 0,0 UV-I 0 W/m 3,4 C 3,7 C 15,9 km/h (3 Bft) 100,00 %
26/03/2019 03:04 6,8 C 79 % 1033,2 hPa 0,0 mm 11,8 km/h (2 Bft) N-NE 27 0 min 0 min 0,000 mm 0,0 UV-I 0 W/m 3,4 C 2,9 C 15,9 km/h (3 Bft) 94,12 %
26/03/2019 03:03 6,8 C 79 % 1033,2 hPa 0,0 mm 7,6 km/h (2 Bft) N-NE 30 0 min 0 min 0,000 mm 0,0 UV-I 0 W/m 3,4 C 5,8 C 12,4 km/h (2 Bft) 100,00 %
26/03/2019 03:02 6,8 C 79 % 1033,2 hPa 0,0 mm 8,7 km/h (2 Bft) N-NE 19 0 min 0 min 0,000 mm 0,0 UV-I 0 W/m 3,4 C 5,0 C 12,4 km/h (2 Bft) 94,44 %
26/03/2019 03:01 6,8 C 80 % 1033,2 hPa 0,0 mm 9,4 km/h (2 Bft) N 5 0 min 0 min 0,025 mm 0,0 UV-I 0 W/m 3,6 C 4,5 C 15,9 km/h (3 Bft) 100,00 %
26/03/2019 03:00 6,8 C 80 % 1033,2 hPa 0,0 mm 9,8 km/h (2 Bft) N-NE 23 0 min 0 min 0,000 mm 0,0 UV-I 0 W/m 3,6 C 4,2 C 15,9 km/h (3 Bft) 96,67 %
26/03/2019 02:59 6,8 C 80 % 1033,2 hPa 0,0 mm 9,0 km/h (2 Bft) N-NE 18 0 min 0 min 0,000 mm 0,0 UV-I 0 W/m 3,6 C 4,7 C 14,2 km/h (3 Bft) 93,33 %
26/03/2019 02:58 6,8 C 80 % 1033,2 hPa 0,0 mm 10,2 km/h (2 Bft) N 355 0 min 0 min 0,000 mm 0,0 UV-I 0 W/m 3,6 C 3,9 C 15,9 km/h (3 Bft) 100,00 %
26/03/2019 02:57 6,8 C 80 % 1033,3 hPa 0,0 mm 13,4 km/h (3 Bft) N 5 0 min 0 min 0,000 mm 0,0 UV-I 0 W/m 3,6 C 2,1 C 17,7 km/h (3 Bft) 100,00 %
26/03/2019 02:56 6,8 C 80 % 1033,4 hPa 0,0 mm 7,5 km/h (2 Bft) N-NE 20 0 min 0 min 0,000 mm 0,0 UV-I 0 W/m 3,6 C 5,9 C 14,2 km/h (3 Bft) 100,00 %
26/03/2019 02:55 6,8 C 81 % 1033,4 hPa 0,0 mm 9,0 km/h (2 Bft) N-NE 13 0 min 0 min 0,000 mm 0,0 UV-I 0 W/m 3,8 C 4,7 C 14,2 km/h (3 Bft) 100,00 %
26/03/2019 02:54 6,8 C 81 % 1033,4 hPa 0,0 mm 8,7 km/h (2 Bft) N 5 0 min 0 min 0,000 mm 0,0 UV-I 0 W/m 3,8 C 5,0 C 14,2 km/h (3 Bft) 100,00 %
26/03/2019 02:53 6,8 C 81 % 1033,4 hPa 0,0 mm 8,0 km/h (2 Bft) N-NO 327 0 min 0 min 0,000 mm 0,0 UV-I 0 W/m 3,8 C 5,5 C 12,4 km/h (2 Bft) 100,00 %
26/03/2019 02:52 6,8 C 81 % 1033,4 hPa 0,0 mm 8,2 km/h (2 Bft) N-NE 26 0 min 0 min 0,000 mm 0,0 UV-I 0 W/m 3,8 C 5,3 C 14,2 km/h (3 Bft) 100,00 %
26/03/2019 02:51 6,8 C 81 % 1033,4 hPa 0,0 mm 8,5 km/h (2 Bft) N-NE 17 0 min 0 min 0,000 mm 0,0 UV-I 0 W/m 3,8 C 5,1 C 14,2 km/h (3 Bft) 100,00 %
26/03/2019 02:50 6,8 C 81 % 1033,4 hPa 0,0 mm 8,5 km/h (2 Bft) N 5 0 min 0 min 0,000 mm 0,0 UV-I 0 W/m 3,8 C 5,1 C 15,9 km/h (3 Bft) 100,00 %
26/03/2019 02:49 6,8 C 81 % 1033,4 hPa 0,0 mm 7,7 km/h (2 Bft) N 5 0 min 0 min 0,000 mm 0,0 UV-I 0 W/m 3,8 C 5,7 C 12,4 km/h (2 Bft) 100,00 %
26/03/2019 02:48 6,8 C 81 % 1033,4 hPa 0,0 mm 6,5 km/h (2 Bft) N 5 0 min 0 min 0,000 mm 0,0 UV-I 0 W/m 3,8 C 6,7 C 14,2 km/h (3 Bft) 100,00 %
26/03/2019 02:47 6,8 C 81 % 1033,4 hPa 0,0 mm 7,5 km/h (2 Bft) N 11 0 min 0 min 0,000 mm 0,0 UV-I 0 W/m 3,8 C 5,9 C 14,2 km/h (3 Bft) 100,00 %
26/03/2019 02:46 6,8 C 81 % 1033,4 hPa 0,0 mm 7,6 km/h (2 Bft) N-NE 13 0 min 0 min 0,000 mm 0,0 UV-I 0 W/m 3,8 C 5,8 C 10,6 km/h (2 Bft) 100,00 %
26/03/2019 02:45 6,8 C 81 % 1033,4 hPa 0,0 mm 7,5 km/h (2 Bft) N-NE 12 0 min 0 min 0,000 mm 0,0 UV-I 0 W/m 3,8 C 5,9 C 10,6 km/h (2 Bft) 100,00 %
26/03/2019 02:44 6,8 C 81 % 1033,4 hPa 0,0 mm 6,4 km/h (2 Bft) N-NO 346 0 min 0 min 0,000 mm 0,0 UV-I 0 W/m 3,8 C 6,8 C 12,4 km/h (2 Bft) 100,00 %
26/03/2019 02:43 6,8 C 81 % 1033,4 hPa 0,0 mm 7,4 km/h (2 Bft) N 355 0 min 0 min 0,000 mm 0,0 UV-I 0 W/m 3,8 C 6,0 C 12,4 km/h (2 Bft) 100,00 %
26/03/2019 02:42 6,8 C 81 % 1033,4 hPa 0,0 mm 7,0 km/h (2 Bft) N-NE 17 0 min 0 min 0,000 mm 0,0 UV-I 0 W/m 3,8 C 6,3 C 10,6 km/h (2 Bft) 100,00 %
26/03/2019 02:41 6,8 C 80 % 1033,4 hPa 0,0 mm 9,0 km/h (2 Bft) NE 35 0 min 0 min 0,000 mm 0,0 UV-I 0 W/m 3,6 C 4,7 C 14,2 km/h (3 Bft) 100,00 %
26/03/2019 02:40 6,8 C 80 % 1033,4 hPa 0,0 mm 8,1 km/h (2 Bft) N-NO 340 0 min 0 min 0,000 mm 0,0 UV-I 0 W/m 3,6 C 5,4 C 14,2 km/h (3 Bft) 100,00 %
26/03/2019 02:39 6,8 C 80 % 1033,4 hPa 0,0 mm 8,3 km/h (2 Bft) NO 315 0 min 0 min 0,000 mm 0,0 UV-I 0 W/m 3,6 C 5,3 C 10,6 km/h (2 Bft) 97,69 %
26/03/2019 02:38 6,8 C 80 % 1033,4 hPa 0,0 mm 8,4 km/h (2 Bft) N-NE 20 0 min 0 min 0,000 mm 0,0 UV-I 0 W/m 3,6 C 5,2 C 14,2 km/h (3 Bft) 100,00 %
26/03/2019 02:37 6,8 C 80 % 1033,4 hPa 0,0 mm 8,2 km/h (2 Bft) N-NO 337 0 min 0 min 0,000 mm 0,0 UV-I 0 W/m 3,6 C 5,3 C 14,2 km/h (3 Bft) 100,00 %
26/03/2019 02:36 6,9 C 80 % 1033,4 hPa 0,0 mm 6,9 km/h (2 Bft) N 5 0 min 0 min 0,000 mm 0,0 UV-I 0 W/m 3,7 C 6,5 C 10,6 km/h (2 Bft) 100,00 %
26/03/2019 02:35 6,9 C 80 % 1033,4 hPa 0,0 mm 7,4 km/h (2 Bft) N 10 0 min 0 min 0,000 mm 0,0 UV-I 0 W/m 3,7 C 6,1 C 12,4 km/h (2 Bft) 100,00 %
26/03/2019 02:34 6,9 C 80 % 1033,4 hPa 0,0 mm 8,9 km/h (2 Bft) N-NE 25 0 min 0 min 0,000 mm 0,0 UV-I 0 W/m 3,7 C 4,9 C 15,9 km/h (3 Bft) 100,00 %
26/03/2019 02:33 6,9 C 80 % 1033,4 hPa 0,0 mm 6,6 km/h (2 Bft) N 355 0 min 0 min 0,000 mm 0,0 UV-I 0 W/m 3,7 C 6,8 C 12,4 km/h (2 Bft) 100,00 %
26/03/2019 02:32 6,9 C 80 % 1033,3 hPa 0,0 mm 6,6 km/h (2 Bft) NE 43 0 min 0 min 0,000 mm 0,0 UV-I 0 W/m 3,7 C 6,8 C 12,4 km/h (2 Bft) 100,00 %
26/03/2019 02:31 6,9 C 80 % 1033,3 hPa 0,0 mm 7,8 km/h (2 Bft) NO 317 0 min 0 min 0,000 mm 0,0 UV-I 0 W/m 3,7 C 5,8 C 10,6 km/h (2 Bft) 100,00 %
26/03/2019 02:30 6,9 C 80 % 1033,3 hPa 0,0 mm 6,7 km/h (2 Bft) N 360 0 min 0 min 0,000 mm 0,0 UV-I 0 W/m 3,7 C 6,7 C 10,6 km/h (2 Bft) 92,59 %
26/03/2019 02:29 6,9 C 80 % 1033,4 hPa 0,0 mm 9,4 km/h (2 Bft) N 5 0 min 0 min 0,000 mm 0,0 UV-I 0 W/m 3,7 C 4,6 C 14,2 km/h (3 Bft) 100,00 %
26/03/2019 02:28 6,9 C 80 % 1033,4 hPa 0,0 mm 9,5 km/h (2 Bft) N 355 0 min 0 min 0,000 mm 0,0 UV-I 0 W/m 3,7 C 4,5 C 15,9 km/h (3 Bft) 96,00 %
26/03/2019 02:27 6,9 C 80 % 1033,4 hPa 0,0 mm 11,4 km/h (2 Bft) N-NO 344 0 min 0 min 0,000 mm 0,0 UV-I 0 W/m 3,7 C 3,3 C 15,9 km/h (3 Bft) 100,00 %
26/03/2019 02:26 6,9 C 80 % 1033,4 hPa 0,0 mm 10,3 km/h (2 Bft) N 5 0 min 0 min 0,000 mm 0,0 UV-I 0 W/m 3,7 C 4,0 C 15,9 km/h (3 Bft) 95,83 %
26/03/2019 02:25 6,9 C 80 % 1033,4 hPa 0,0 mm 7,9 km/h (2 Bft) N 5 0 min 0 min 0,000 mm 0,0 UV-I 0 W/m 3,7 C 5,7 C 10,6 km/h (2 Bft) 92,86 %
26/03/2019 02:24 6,9 C 80 % 1033,4 hPa 0,0 mm 5,5 km/h (2 Bft) N 5 0 min 0 min 0,000 mm 0,0 UV-I 0 W/m 3,7 C 6,9 C 8,9 km/h (2 Bft) 100,00 %
26/03/2019 02:23 6,9 C 79 % 1033,5 hPa 0,0 mm 7,7 km/h (2 Bft) N 5 0 min 0 min 0,000 mm 0,0 UV-I 0 W/m 3,5 C 5,8 C 14,2 km/h (3 Bft) 88,89 %
26/03/2019 02:22 6,9 C 79 % 1033,5 hPa 0,0 mm 8,7 km/h (2 Bft) N-NE 15 0 min 0 min 0,000 mm 0,0 UV-I 0 W/m 3,5 C 5,1 C 12,4 km/h (2 Bft) 95,12 %
26/03/2019 02:21 7,0 C 79 % 1033,4 hPa 0,0 mm 7,3 km/h (2 Bft) N-NO 347 0 min 0 min 0,000 mm 0,0 UV-I 0 W/m 3,6 C 6,3 C 10,6 km/h (2 Bft) 93,33 %
26/03/2019 02:20 7,0 C 79 % 1033,4 hPa 0,0 mm 7,4 km/h (2 Bft) N-NE 21 0 min 0 min 0,000 mm 0,0 UV-I 0 W/m 3,6 C 6,2 C 10,6 km/h (2 Bft) 100,00 %
26/03/2019 02:19 7,0 C 79 % 1033,4 hPa 0,0 mm 6,6 km/h (2 Bft) N 11 0 min 0 min 0,000 mm 0,0 UV-I 0 W/m 3,6 C 6,9 C 10,6 km/h (2 Bft) 88,89 %
26/03/2019 02:18 7,0 C 79 % 1033,4 hPa 0,0 mm 5,1 km/h (1 Bft) N 5 0 min 0 min 0,000 mm 0,0 UV-I 0 W/m 3,6 C 7,0 C 7,1 km/h (2 Bft) 100,00 %
26/03/2019 02:17 7,0 C 79 % 1033,4 hPa 0,0 mm 6,5 km/h (2 Bft) N-NE 32 0 min 0 min 0,000 mm 0,0 UV-I 0 W/m 3,6 C 6,9 C 8,9 km/h (2 Bft) 96,67 %
26/03/2019 02:16 7,0 C 79 % 1033,4 hPa 0,0 mm 8,1 km/h (2 Bft) N 349 0 min 0 min 0,000 mm 0,0 UV-I 0 W/m 3,6 C 5,6 C 12,4 km/h (2 Bft) 92,31 %
26/03/2019 02:15 7,0 C 79 % 1033,4 hPa 0,0 mm 9,6 km/h (2 Bft) N 5 0 min 0 min 0,000 mm 0,0 UV-I 0 W/m 3,6 C 4,5 C 14,2 km/h (3 Bft) 100,00 %
26/03/2019 02:14 7,0 C 79 % 1033,4 hPa 0,0 mm 7,8 km/h (2 Bft) N 9 0 min 0 min 0,000 mm 0,0 UV-I 0 W/m 3,6 C 5,9 C 10,6 km/h (2 Bft) 93,75 %
26/03/2019 02:13 7,0 C 79 % 1033,4 hPa 0,0 mm 10,7 km/h (2 Bft) N 360 0 min 0 min 0,000 mm 0,0 UV-I 0 W/m 3,6 C 3,8 C 15,9 km/h (3 Bft) 95,83 %
26/03/2019 02:12 7,0 C 79 % 1033,5 hPa 0,0 mm 11,4 km/h (2 Bft) N-NE 25 0 min 0 min 0,000 mm 0,0 UV-I 0 W/m 3,6 C 3,4 C 15,9 km/h (3 Bft) 95,65 %
26/03/2019 02:11 7,0 C 79 % 1033,5 hPa 0,0 mm 9,2 km/h (2 Bft) N-NE 18 0 min 0 min 0,000 mm 0,0 UV-I 0 W/m 3,6 C 4,8 C 15,9 km/h (3 Bft) 96,00 %
26/03/2019 02:10 7,0 C 79 % 1033,5 hPa 0,0 mm 9,7 km/h (2 Bft) NE 37 0 min 0 min 0,000 mm 0,0 UV-I 0 W/m 3,6 C 4,5 C 17,7 km/h (3 Bft) 95,83 %
26/03/2019 02:09 7,0 C 79 % 1033,5 hPa 0,0 mm 7,1 km/h (2 Bft) N 5 0 min 0 min 0,000 mm 0,0 UV-I 0 W/m 3,6 C 6,4 C 10,6 km/h (2 Bft) 92,00 %
26/03/2019 02:08 7,0 C 79 % 1033,5 hPa 0,0 mm 8,4 km/h (2 Bft) N-NE 12 0 min 0 min 0,000 mm 0,0 UV-I 0 W/m 3,6 C 5,4 C 14,2 km/h (3 Bft) 95,83 %
26/03/2019 02:07 7,1 C 79 % 1033,5 hPa 0,0 mm 8,5 km/h (2 Bft) N 10 0 min 0 min 0,000 mm 0,0 UV-I 0 W/m 3,7 C 5,4 C 12,4 km/h (2 Bft) 95,83 %
26/03/2019 02:06 7,1 C 79 % 1033,5 hPa 0,0 mm 6,2 km/h (2 Bft) N-NE 15 0 min 0 min 0,000 mm 0,0 UV-I 0 W/m 3,7 C 7,1 C 8,9 km/h (2 Bft) 100,00 %
26/03/2019 02:05 7,1 C 79 % 1033,5 hPa 0,0 mm 7,2 km/h (2 Bft) N 349 0 min 0 min 0,000 mm 0,0 UV-I 0 W/m 3,7 C 6,4 C 14,2 km/h (3 Bft) 95,83 %
26/03/2019 02:04 7,1 C 79 % 1033,5 hPa 0,0 mm 8,2 km/h (2 Bft) N 11 0 min 0 min 0,000 mm 0,0 UV-I 0 W/m 3,7 C 5,7 C 12,4 km/h (2 Bft) 100,00 %
26/03/2019 02:03 7,1 C 79 % 1033,5 hPa 0,0 mm 6,0 km/h (2 Bft) N-NE 25 0 min 0 min 0,000 mm 0,0 UV-I 0 W/m 3,7 C 7,1 C 14,2 km/h (3 Bft) 95,83 %
26/03/2019 02:02 7,1 C 79 % 1033,5 hPa 0,0 mm 5,8 km/h (2 Bft) N 5 0 min 0 min 0,000 mm 0,0 UV-I 0 W/m 3,7 C 7,1 C 8,9 km/h (2 Bft) 91,67 %
26/03/2019 02:01 7,1 C 79 % 1033,5 hPa 0,0 mm 6,9 km/h (2 Bft) N-NE 26 0 min 0 min 0,026 mm 0,0 UV-I 0 W/m 3,7 C 6,7 C 14,2 km/h (3 Bft) 92,31 %
26/03/2019 02:00 7,1 C 79 % 1033,5 hPa 0,0 mm 7,1 km/h (2 Bft) N-NE 18 0 min 0 min 0,000 mm 0,0 UV-I 0 W/m 3,7 C 6,5 C 8,9 km/h (2 Bft) 93,55 %
26/03/2019 01:59 7,1 C 79 % 1033,5 hPa 0,0 mm 5,0 km/h (1 Bft) N-NE 17 0 min 0 min 0,000 mm 0,0 UV-I 0 W/m 3,7 C 7,1 C 7,1 km/h (2 Bft) 100,00 %
26/03/2019 01:58 7,1 C 79 % 1033,5 hPa 0,0 mm 6,7 km/h (2 Bft) N 5 0 min 0 min 0,000 mm 0,0 UV-I 0 W/m 3,7 C 6,9 C 8,9 km/h (2 Bft) 95,65 %
26/03/2019 01:57 7,1 C 79 % 1033,5 hPa 0,0 mm 6,6 km/h (2 Bft) N-NE 19 0 min 0 min 0,000 mm 0,0 UV-I 0 W/m 3,7 C 7,0 C 8,9 km/h (2 Bft) 100,00 %
26/03/2019 01:56 7,1 C 79 % 1033,6 hPa 0,0 mm 7,9 km/h (2 Bft) N 5 0 min 0 min 0,000 mm 0,0 UV-I 0 W/m 3,7 C 5,9 C 12,4 km/h (2 Bft) 92,86 %
26/03/2019 01:55 7,1 C 79 % 1033,5 hPa 0,0 mm 5,9 km/h (2 Bft) N-NO 347 0 min 0 min 0,000 mm 0,0 UV-I 0 W/m 3,7 C 7,1 C 8,9 km/h (2 Bft) 100,00 %
26/03/2019 01:54 7,1 C 79 % 1033,5 hPa 0,0 mm 6,2 km/h (2 Bft) N-NE 19 0 min 0 min 0,000 mm 0,0 UV-I 0 W/m 3,7 C 7,1 C 8,9 km/h (2 Bft) 92,00 %
26/03/2019 01:53 7,1 C 80 % 1033,5 hPa 0,0 mm 6,2 km/h (2 Bft) N-NE 25 0 min 0 min 0,000 mm 0,0 UV-I 0 W/m 3,9 C 7,1 C 8,9 km/h (2 Bft) 95,83 %
26/03/2019 01:52 7,1 C 79 % 1033,5 hPa 0,0 mm 3,9 km/h (1 Bft) N-NO 348 0 min 0 min 0,000 mm 0,0 UV-I 0 W/m 3,7 C 7,1 C 5,3 km/h (1 Bft) 100,00 %
26/03/2019 01:51 7,1 C 80 % 1033,5 hPa 0,0 mm 5,5 km/h (2 Bft) N-NO 340 0 min 0 min 0,000 mm 0,0 UV-I 0 W/m 3,9 C 7,1 C 8,9 km/h (2 Bft) 91,67 %
26/03/2019 01:50 7,1 C 80 % 1033,6 hPa 0,0 mm 5,0 km/h (1 Bft) NO 316 0 min 0 min 0,000 mm 0,0 UV-I 0 W/m 3,9 C 7,1 C 8,9 km/h (2 Bft) 100,00 %
26/03/2019 01:49 7,0 C 80 % 1033,5 hPa 0,0 mm 4,6 km/h (1 Bft) N-NE 20 0 min 0 min 0,000 mm 0,0 UV-I 0 W/m 3,8 C 7,0 C 12,4 km/h (2 Bft) 91,67 %
26/03/2019 01:48 7,0 C 80 % 1033,5 hPa 0,0 mm 4,8 km/h (1 Bft) N-NO 330 0 min 0 min 0,000 mm 0,0 UV-I 0 W/m 3,8 C 7,0 C 10,6 km/h (2 Bft) 100,00 %
26/03/2019 01:47 7,0 C 80 % 1033,5 hPa 0,0 mm 4,9 km/h (1 Bft) N 360 0 min 0 min 0,000 mm 0,0 UV-I 0 W/m 3,8 C 7,0 C 7,1 km/h (2 Bft) 92,00 %
26/03/2019 01:46 7,0 C 80 % 1033,5 hPa 0,0 mm 5,2 km/h (1 Bft) NO 318 0 min 0 min 0,000 mm 0,0 UV-I 0 W/m 3,8 C 7,0 C 7,1 km/h (2 Bft) 95,65 %
26/03/2019 01:45 7,0 C 80 % 1033,5 hPa 0,0 mm 6,2 km/h (2 Bft) N-NO 345 0 min 0 min 0,000 mm 0,0 UV-I 0 W/m 3,8 C 7,0 C 14,2 km/h (3 Bft) 92,00 %
26/03/2019 01:44 7,1 C 80 % 1033,5 hPa 0,0 mm 6,1 km/h (2 Bft) N-NO 348 0 min 0 min 0,000 mm 0,0 UV-I 0 W/m 3,9 C 7,1 C 10,6 km/h (2 Bft) 91,67 %
26/03/2019 01:43 7,1 C 80 % 1033,5 hPa 0,0 mm 4,5 km/h (1 Bft) N-NO 348 0 min 0 min 0,000 mm 0,0 UV-I 0 W/m 3,9 C 7,1 C 8,9 km/h (2 Bft) 100,00 %
26/03/2019 01:42 7,1 C 80 % 1033,5 hPa 0,0 mm 4,3 km/h (1 Bft) N-NE 17 0 min 0 min 0,000 mm 0,0 UV-I 0 W/m 3,9 C 7,1 C 7,1 km/h (2 Bft) 100,00 %
26/03/2019 01:41 7,1 C 80 % 1033,5 hPa 0,0 mm 4,4 km/h (1 Bft) N-NO 338 0 min 0 min 0,000 mm 0,0 UV-I 0 W/m 3,9 C 7,1 C 10,6 km/h (2 Bft) 100,00 %
26/03/2019 01:40 7,1 C 80 % 1033,5 hPa 0,0 mm 3,2 km/h (1 Bft) NO 325 0 min 0 min 0,000 mm 0,0 UV-I 0 W/m 3,9 C 7,1 C 5,3 km/h (1 Bft) 100,00 %
26/03/2019 01:39 7,1 C 80 % 1033,5 hPa 0,0 mm 4,3 km/h (1 Bft) N-NE 29 0 min 0 min 0,000 mm 0,0 UV-I 0 W/m 3,9 C 7,1 C 8,9 km/h (2 Bft) 100,00 %
26/03/2019 01:38 7,1 C 80 % 1033,6 hPa 0,0 mm 5,3 km/h (1 Bft) N-NO 340 0 min 0 min 0,000 mm 0,0 UV-I 0 W/m 3,9 C 7,1 C 7,1 km/h (2 Bft) 100,00 %
26/03/2019 01:37 7,1 C 80 % 1033,5 hPa 0,0 mm 5,3 km/h (1 Bft) N 355 0 min 0 min 0,000 mm 0,0 UV-I 0 W/m 3,9 C 7,1 C 8,9 km/h (2 Bft) 100,00 %
26/03/2019 01:36 7,1 C 81 % 1033,5 hPa 0,0 mm 4,8 km/h (1 Bft) O 273 0 min 0 min 0,000 mm 0,0 UV-I 0 W/m 4,1 C 7,1 C 10,6 km/h (2 Bft) 100,00 %
26/03/2019 01:35 7,1 C 80 % 1033,5 hPa 0,0 mm 6,9 km/h (2 Bft) N-NO 332 0 min 0 min 0,000 mm 0,0 UV-I 0 W/m 3,9 C 6,7 C 17,7 km/h (3 Bft) 100,00 %
26/03/2019 01:34 7,1 C 80 % 1033,5 hPa 0,0 mm 4,2 km/h (1 Bft) N-NO 329 0 min 0 min 0,000 mm 0,0 UV-I 0 W/m 3,9 C 7,1 C 7,1 km/h (2 Bft) 100,00 %
26/03/2019 01:33 7,1 C 81 % 1033,5 hPa 0,0 mm 5,8 km/h (2 Bft) N-NE 17 0 min 0 min 0,000 mm 0,0 UV-I 0 W/m 4,1 C 7,1 C 8,9 km/h (2 Bft) 100,00 %
26/03/2019 01:32 7,1 C 81 % 1033,6 hPa 0,0 mm 6,3 km/h (2 Bft) N-NO 339 0 min 0 min 0,000 mm 0,0 UV-I 0 W/m 4,1 C 7,1 C 7,1 km/h (2 Bft) 100,00 %
26/03/2019 01:31 7,1 C 81 % 1033,5 hPa 0,0 mm 6,2 km/h (2 Bft) N-NE 19 0 min 0 min 0,000 mm 0,0 UV-I 0 W/m 4,1 C 7,1 C 8,9 km/h (2 Bft) 100,00 %
26/03/2019 01:30 7,1 C 81 % 1033,5 hPa 0,0 mm 4,7 km/h (1 Bft) NE 42 0 min 0 min 0,000 mm 0,0 UV-I 0 W/m 4,1 C 7,1 C 7,1 km/h (2 Bft) 100,00 %
26/03/2019 01:29 7,1 C 81 % 1033,5 hPa 0,0 mm 5,4 km/h (2 Bft) NE 34 0 min 0 min 0,000 mm 0,0 UV-I 0 W/m 4,1 C 7,1 C 7,1 km/h (2 Bft) 100,00 %
26/03/2019 01:28 7,1 C 81 % 1033,4 hPa 0,0 mm 4,2 km/h (1 Bft) N 5 0 min 0 min 0,000 mm 0,0 UV-I 0 W/m 4,1 C 7,1 C 7,1 km/h (2 Bft) 100,00 %
26/03/2019 01:27 7,1 C 81 % 1033,5 hPa 0,0 mm 6,1 km/h (2 Bft) N-NE 32 0 min 0 min 0,000 mm 0,0 UV-I 0 W/m 4,1 C 7,1 C 8,9 km/h (2 Bft) 93,33 %
26/03/2019 01:26 7,0 C 81 % 1033,5 hPa 0,0 mm 5,4 km/h (2 Bft) N-NE 13 0 min 0 min 0,000 mm 0,0 UV-I 0 W/m 4,0 C 7,0 C 14,2 km/h (3 Bft) 100,00 %
26/03/2019 01:25 7,0 C 81 % 1033,5 hPa 0,0 mm 8,9 km/h (2 Bft) N-NE 21 0 min 0 min 0,000 mm 0,0 UV-I 0 W/m 4,0 C 5,0 C 14,2 km/h (3 Bft) 100,00 %
26/03/2019 01:24 7,1 C 81 % 1033,5 hPa 0,0 mm 4,8 km/h (1 Bft) NO 316 0 min 0 min 0,000 mm 0,0 UV-I 0 W/m 4,1 C 7,1 C 8,9 km/h (2 Bft) 100,00 %
26/03/2019 01:23 7,0 C 81 % 1033,5 hPa 0,0 mm 5,2 km/h (1 Bft) N 11 0 min 0 min 0,000 mm 0,0 UV-I 0 W/m 4,0 C 7,0 C 10,6 km/h (2 Bft) 100,00 %
26/03/2019 01:22 7,1 C 81 % 1033,6 hPa 0,0 mm 4,3 km/h (1 Bft) N 5 0 min 0 min 0,000 mm 0,0 UV-I 0 W/m 4,1 C 7,1 C 8,9 km/h (2 Bft) 100,00 %
26/03/2019 01:21 7,1 C 81 % 1033,6 hPa 0,0 mm 7,3 km/h (2 Bft) N 10 0 min 0 min 0,000 mm 0,0 UV-I 0 W/m 4,1 C 6,4 C 14,2 km/h (3 Bft) 100,00 %
26/03/2019 01:20 7,1 C 81 % 1033,6 hPa 0,0 mm 4,2 km/h (1 Bft) NO 317 0 min 0 min 0,000 mm 0,0 UV-I 0 W/m 4,1 C 7,1 C 7,1 km/h (2 Bft) 91,67 %
26/03/2019 01:19 7,1 C 81 % 1033,6 hPa 0,0 mm 6,6 km/h (2 Bft) N-NO 345 0 min 0 min 0,000 mm 0,0 UV-I 0 W/m 4,1 C 7,0 C 8,9 km/h (2 Bft) 100,00 %
26/03/2019 01:18 7,1 C 81 % 1033,6 hPa 0,0 mm 6,4 km/h (2 Bft) N-NO 348 0 min 0 min 0,000 mm 0,0 UV-I 0 W/m 4,1 C 7,1 C 8,9 km/h (2 Bft) 96,67 %
26/03/2019 01:17 7,1 C 81 % 1033,6 hPa 0,0 mm 8,0 km/h (2 Bft) N 11 0 min 0 min 0,000 mm 0,0 UV-I 0 W/m 4,1 C 5,8 C 10,6 km/h (2 Bft) 96,43 %
26/03/2019 01:16 7,1 C 81 % 1033,6 hPa 0,0 mm 7,0 km/h (2 Bft) N 351 0 min 0 min 0,000 mm 0,0 UV-I 0 W/m 4,1 C 6,6 C 8,9 km/h (2 Bft) 100,00 %
26/03/2019 01:15 7,1 C 81 % 1033,6 hPa 0,0 mm 4,2 km/h (1 Bft) N-NE 18 0 min 0 min 0,000 mm 0,0 UV-I 0 W/m 4,1 C 7,1 C 7,1 km/h (2 Bft) 92,59 %
26/03/2019 01:14 7,1 C 81 % 1033,6 hPa 0,0 mm 4,3 km/h (1 Bft) N 360 0 min 0 min 0,000 mm 0,0 UV-I 0 W/m 4,1 C 7,1 C 8,9 km/h (2 Bft) 100,00 %
26/03/2019 01:13 7,1 C 81 % 1033,5 hPa 0,0 mm 3,8 km/h (1 Bft) N 5 0 min 0 min 0,000 mm 0,0 UV-I 0 W/m 4,1 C 7,1 C 5,3 km/h (1 Bft) 96,15 %
26/03/2019 01:12 7,1 C 81 % 1033,5 hPa 0,0 mm 4,7 km/h (1 Bft) N 360 0 min 0 min 0,000 mm 0,0 UV-I 0 W/m 4,1 C 7,1 C 7,1 km/h (2 Bft) 100,00 %
26/03/2019 01:11 7,1 C 81 % 1033,5 hPa 0,0 mm 5,0 km/h (1 Bft) N 360 0 min 0 min 0,000 mm 0,0 UV-I 0 W/m 4,1 C 7,1 C 8,9 km/h (2 Bft) 96,30 %
26/03/2019 01:10 7,1 C 81 % 1033,5 hPa 0,0 mm 4,1 km/h (1 Bft) N 360 0 min 0 min 0,000 mm 0,0 UV-I 0 W/m 4,1 C 7,1 C 7,1 km/h (2 Bft) 96,43 %
26/03/2019 01:09 7,1 C 81 % 1033,5 hPa 0,0 mm 6,2 km/h (2 Bft) N 9 0 min 0 min 0,000 mm 0,0 UV-I 0 W/m 4,1 C 7,1 C 14,2 km/h (3 Bft) 100,00 %
26/03/2019 01:08 7,1 C 81 % 1033,6 hPa 0,0 mm 4,8 km/h (1 Bft) N-NE 30 0 min 0 min 0,000 mm 0,0 UV-I 0 W/m 4,1 C 7,1 C 7,1 km/h (2 Bft) 100,00 %
26/03/2019 01:07 7,1 C 81 % 1033,6 hPa 0,0 mm 7,2 km/h (2 Bft) N 5 0 min 0 min 0,000 mm 0,0 UV-I 0 W/m 4,1 C 6,4 C 12,4 km/h (2 Bft) 100,00 %
26/03/2019 01:06 7,1 C 81 % 1033,6 hPa 0,0 mm 7,3 km/h (2 Bft) N 11 0 min 0 min 0,000 mm 0,0 UV-I 0 W/m 4,1 C 6,4 C 12,4 km/h (2 Bft) 100,00 %
26/03/2019 01:05 7,1 C 81 % 1033,5 hPa 0,0 mm 6,2 km/h (2 Bft) N-NE 15 0 min 0 min 0,000 mm 0,0 UV-I 0 W/m 4,1 C 7,1 C 10,6 km/h (2 Bft) 100,00 %
26/03/2019 01:04 7,1 C 81 % 1033,5 hPa 0,0 mm 7,5 km/h (2 Bft) N-NE 23 0 min 0 min 0,000 mm 0,0 UV-I 0 W/m 4,1 C 6,2 C 10,6 km/h (2 Bft) 96,00 %
26/03/2019 01:03 7,1 C 81 % 1033,5 hPa 0,0 mm 5,5 km/h (2 Bft) N 360 0 min 0 min 0,000 mm 0,0 UV-I 0 W/m 4,1 C 7,1 C 7,1 km/h (2 Bft) 95,65 %
26/03/2019 01:02 7,1 C 81 % 1033,5 hPa 0,0 mm 5,7 km/h (2 Bft) N 10 0 min 0 min 0,000 mm 0,0 UV-I 0 W/m 4,1 C 7,1 C 8,9 km/h (2 Bft) 96,43 %
26/03/2019 01:01 7,1 C 81 % 1033,5 hPa 0,0 mm 7,4 km/h (2 Bft) N-NO 340 0 min 0 min 0,025 mm 0,0 UV-I 0 W/m 4,1 C 6,3 C 10,6 km/h (2 Bft) 100,00 %
26/03/2019 01:00 7,1 C 81 % 1033,6 hPa 0,0 mm 4,8 km/h (1 Bft) NO 325 0 min 0 min 0,000 mm 0,0 UV-I 0 W/m 4,1 C 7,1 C 8,9 km/h (2 Bft) 100,00 %
26/03/2019 00:59 7,1 C 81 % 1033,6 hPa 0,0 mm 5,8 km/h (2 Bft) N-NE 17 0 min 0 min 0,000 mm 0,0 UV-I 0 W/m 4,1 C 7,1 C 8,9 km/h (2 Bft) 100,00 %
26/03/2019 00:58 7,1 C 81 % 1033,6 hPa 0,0 mm 5,2 km/h (1 Bft) N-NE 24 0 min 0 min 0,000 mm 0,0 UV-I 0 W/m 4,1 C 7,1 C 7,1 km/h (2 Bft) 100,00 %
26/03/2019 00:57 7,1 C 82 % 1033,6 hPa 0,0 mm 4,3 km/h (1 Bft) N 5 0 min 0 min 0,000 mm 0,0 UV-I 0 W/m 4,2 C 7,1 C 7,1 km/h (2 Bft) 95,83 %
26/03/2019 00:56 7,1 C 82 % 1033,6 hPa 0,0 mm 4,8 km/h (1 Bft) N-NE 13 0 min 0 min 0,000 mm 0,0 UV-I 0 W/m 4,2 C 7,1 C 8,9 km/h (2 Bft) 100,00 %
26/03/2019 00:55 7,1 C 82 % 1033,6 hPa 0,0 mm 4,4 km/h (1 Bft) N-NE 18 0 min 0 min 0,000 mm 0,0 UV-I 0 W/m 4,2 C 7,1 C 8,9 km/h (2 Bft) 100,00 %
26/03/2019 00:54 7,1 C 82 % 1033,6 hPa 0,0 mm 4,7 km/h (1 Bft) N-NE 14 0 min 0 min 0,000 mm 0,0 UV-I 0 W/m 4,2 C 7,1 C 7,1 km/h (2 Bft) 100,00 %
26/03/2019 00:53 7,1 C 81 % 1033,6 hPa 0,0 mm 6,9 km/h (2 Bft) N 9 0 min 0 min 0,000 mm 0,0 UV-I 0 W/m 4,1 C 6,7 C 14,2 km/h (3 Bft) 100,00 %
26/03/2019 00:52 7,1 C 82 % 1033,6 hPa 0,0 mm 4,9 km/h (1 Bft) N 10 0 min 0 min 0,000 mm 0,0 UV-I 0 W/m 4,2 C 7,1 C 7,1 km/h (2 Bft) 100,00 %
26/03/2019 00:51 7,1 C 82 % 1033,6 hPa 0,0 mm 6,2 km/h (2 Bft) N 355 0 min 0 min 0,000 mm 0,0 UV-I 0 W/m 4,2 C 7,1 C 8,9 km/h (2 Bft) 93,10 %
26/03/2019 00:50 7,1 C 82 % 1033,6 hPa 0,0 mm 7,5 km/h (2 Bft) N-NO 337 0 min 0 min 0,000 mm 0,0 UV-I 0 W/m 4,2 C 6,2 C 14,2 km/h (3 Bft) 100,00 %
26/03/2019 00:49 7,1 C 82 % 1033,7 hPa 0,0 mm 4,8 km/h (1 Bft) N-NO 340 0 min 0 min 0,000 mm 0,0 UV-I 0 W/m 4,2 C 7,1 C 8,9 km/h (2 Bft) 92,59 %
26/03/2019 00:48 7,1 C 82 % 1033,6 hPa 0,0 mm 5,1 km/h (1 Bft) N 355 0 min 0 min 0,000 mm 0,0 UV-I 0 W/m 4,2 C 7,1 C 8,9 km/h (2 Bft) 100,00 %
26/03/2019 00:47 7,1 C 82 % 1033,6 hPa 0,0 mm 6,8 km/h (2 Bft) N 5 0 min 0 min 0,000 mm 0,0 UV-I 0 W/m 4,2 C 6,8 C 10,6 km/h (2 Bft) 100,00 %
26/03/2019 00:46 7,1 C 82 % 1033,6 hPa 0,0 mm 6,6 km/h (2 Bft) N-NO 338 0 min 0 min 0,000 mm 0,0 UV-I 0 W/m 4,2 C 7,0 C 12,4 km/h (2 Bft) 100,00 %
26/03/2019 00:45 7,1 C 82 % 1033,6 hPa 0,0 mm 7,2 km/h (2 Bft) N 11 0 min 0 min 0,000 mm 0,0 UV-I 0 W/m 4,2 C 6,4 C 14,2 km/h (3 Bft) 100,00 %
26/03/2019 00:44 7,1 C 82 % 1033,6 hPa 0,0 mm 6,7 km/h (2 Bft) N 5 0 min 0 min 0,000 mm 0,0 UV-I 0 W/m 4,2 C 6,9 C 14,2 km/h (3 Bft) 93,33 %
26/03/2019 00:43 7,1 C 82 % 1033,6 hPa 0,0 mm 4,8 km/h (1 Bft) N 5 0 min 0 min 0,000 mm 0,0 UV-I 0 W/m 4,2 C 7,1 C 7,1 km/h (2 Bft) 100,00 %
26/03/2019 00:42 7,1 C 82 % 1033,6 hPa 0,0 mm 7,2 km/h (2 Bft) N 9 0 min 0 min 0,000 mm 0,0 UV-I 0 W/m 4,2 C 6,4 C 14,2 km/h (3 Bft) 100,00 %
26/03/2019 00:41 7,1 C 82 % 1033,6 hPa 0,0 mm 5,5 km/h (2 Bft) N-NE 26 0 min 0 min 0,000 mm 0,0 UV-I 0 W/m 4,2 C 7,1 C 10,6 km/h (2 Bft) 96,00 %
26/03/2019 00:40 7,1 C 82 % 1033,6 hPa 0,0 mm 6,0 km/h (2 Bft) N 360 0 min 0 min 0,000 mm 0,0 UV-I 0 W/m 4,2 C 7,1 C 8,9 km/h (2 Bft) 100,00 %
26/03/2019 00:39 7,1 C 82 % 1033,6 hPa 0,0 mm 6,0 km/h (2 Bft) N 9 0 min 0 min 0,000 mm 0,0 UV-I 0 W/m 4,2 C 7,1 C 8,9 km/h (2 Bft) 95,83 %
26/03/2019 00:38 7,1 C 82 % 1033,6 hPa 0,0 mm 3,0 km/h (1 Bft) NE 39 0 min 0 min 0,000 mm 0,0 UV-I 0 W/m 4,2 C 7,1 C 5,3 km/h (1 Bft) 100,00 %
26/03/2019 00:37 7,1 C 82 % 1033,6 hPa 0,0 mm 4,9 km/h (1 Bft) N-NO 343 0 min 0 min 0,000 mm 0,0 UV-I 0 W/m 4,2 C 7,1 C 8,9 km/h (2 Bft) 91,67 %
26/03/2019 00:36 7,0 C 82 % 1033,6 hPa 0,0 mm 5,8 km/h (2 Bft) N-NE 21 0 min 0 min 0,000 mm 0,0 UV-I 0 W/m 4,1 C 7,0 C 8,9 km/h (2 Bft) 96,00 %
26/03/2019 00:35 7,0 C 82 % 1033,6 hPa 0,0 mm 5,9 km/h (2 Bft) N-NE 22 0 min 0 min 0,000 mm 0,0 UV-I 0 W/m 4,1 C 7,0 C 8,9 km/h (2 Bft) 100,00 %
26/03/2019 00:34 7,1 C 82 % 1033,6 hPa 0,0 mm 5,1 km/h (1 Bft) N-NE 14 0 min 0 min 0,000 mm 0,0 UV-I 0 W/m 4,2 C 7,1 C 8,9 km/h (2 Bft) 100,00 %
26/03/2019 00:33 7,1 C 82 % 1033,6 hPa 0,0 mm 5,0 km/h (1 Bft) N 11 0 min 0 min 0,000 mm 0,0 UV-I 0 W/m 4,2 C 7,1 C 8,9 km/h (2 Bft) 95,83 %
26/03/2019 00:32 7,1 C 82 % 1033,6 hPa 0,0 mm 3,2 km/h (1 Bft) N 355 0 min 0 min 0,000 mm 0,0 UV-I 0 W/m 4,2 C 7,1 C 5,3 km/h (1 Bft) 95,83 %
26/03/2019 00:31 7,1 C 82 % 1033,6 hPa 0,0 mm 4,0 km/h (1 Bft) NE 38 0 min 0 min 0,000 mm 0,0 UV-I 0 W/m 4,2 C 7,1 C 10,6 km/h (2 Bft) 96,43 %
26/03/2019 00:30 7,1 C 82 % 1033,6 hPa 0,0 mm 3,2 km/h (1 Bft) NO 318 0 min 0 min 0,000 mm 0,0 UV-I 0 W/m 4,2 C 7,1 C 7,1 km/h (2 Bft) 100,00 %
26/03/2019 00:29 7,0 C 82 % 1033,6 hPa 0,0 mm 4,9 km/h (1 Bft) N 5 0 min 0 min 0,000 mm 0,0 UV-I 0 W/m 4,1 C 7,0 C 7,1 km/h (2 Bft) 100,00 %
26/03/2019 00:28 7,0 C 82 % 1033,6 hPa 0,0 mm 3,2 km/h (1 Bft) N-NE 30 0 min 0 min 0,000 mm 0,0 UV-I 0 W/m 4,1 C 7,0 C 5,3 km/h (1 Bft) 100,00 %
26/03/2019 00:27 7,1 C 82 % 1033,5 hPa 0,0 mm 3,4 km/h (1 Bft) N-NO 342 0 min 0 min 0,000 mm 0,0 UV-I 0 W/m 4,2 C 7,1 C 5,3 km/h (1 Bft) 100,00 %
26/03/2019 00:26 7,0 C 82 % 1033,6 hPa 0,0 mm 2,1 km/h (1 Bft) N-NO 327 0 min 0 min 0,000 mm 0,0 UV-I 0 W/m 4,1 C 7,0 C 3,5 km/h (1 Bft) 100,00 %
26/03/2019 00:25 7,1 C 82 % 1033,6 hPa 0,0 mm 4,4 km/h (1 Bft) NO 317 0 min 0 min 0,000 mm 0,0 UV-I 0 W/m 4,2 C 7,1 C 7,1 km/h (2 Bft) 100,00 %
26/03/2019 00:24 7,0 C 82 % 1033,6 hPa 0,0 mm 3,6 km/h (1 Bft) N-NO 341 0 min 0 min 0,000 mm 0,0 UV-I 0 W/m 4,1 C 7,0 C 7,1 km/h (2 Bft) 100,00 %
26/03/2019 00:23 7,0 C 82 % 1033,6 hPa 0,0 mm 3,6 km/h (1 Bft) N 11 0 min 0 min 0,000 mm 0,0 UV-I 0 W/m 4,1 C 7,0 C 7,1 km/h (2 Bft) 100,00 %
26/03/2019 00:22 7,0 C 82 % 1033,6 hPa 0,0 mm 4,5 km/h (1 Bft) N 355 0 min 0 min 0,000 mm 0,0 UV-I 0 W/m 4,1 C 7,0 C 8,9 km/h (2 Bft) 100,00 %
26/03/2019 00:21 7,0 C 82 % 1033,5 hPa 0,0 mm 3,5 km/h (1 Bft) N 5 0 min 0 min 0,000 mm 0,0 UV-I 0 W/m 4,1 C 7,0 C 7,1 km/h (2 Bft) 100,00 %
26/03/2019 00:20 7,0 C 82 % 1033,5 hPa 0,0 mm 3,9 km/h (1 Bft) N 360 0 min 0 min 0,000 mm 0,0 UV-I 0 W/m 4,1 C 7,0 C 5,3 km/h (1 Bft) 92,31 %
26/03/2019 00:19 7,0 C 82 % 1033,6 hPa 0,0 mm 4,9 km/h (1 Bft) NO 312 0 min 0 min 0,000 mm 0,0 UV-I 0 W/m 4,1 C 7,0 C 10,6 km/h (2 Bft) 100,00 %
26/03/2019 00:18 7,0 C 82 % 1033,6 hPa 0,0 mm 2,1 km/h (1 Bft) NE 42 0 min 0 min 0,000 mm 0,0 UV-I 0 W/m 4,1 C 7,0 C 5,3 km/h (1 Bft) 100,00 %
26/03/2019 00:17 7,0 C 82 % 1033,6 hPa 0,0 mm 6,0 km/h (2 Bft) NO 317 0 min 0 min 0,000 mm 0,0 UV-I 0 W/m 4,1 C 7,0 C 10,6 km/h (2 Bft) 100,00 %
26/03/2019 00:16 7,0 C 82 % 1033,6 hPa 0,0 mm 2,7 km/h (1 Bft) N-NO 348 0 min 0 min 0,000 mm 0,0 UV-I 0 W/m 4,1 C 7,0 C 5,3 km/h (1 Bft) 100,00 %
26/03/2019 00:15 7,0 C 82 % 1033,6 hPa 0,0 mm 3,6 km/h (1 Bft) N-NE 14 0 min 0 min 0,000 mm 0,0 UV-I 0 W/m 4,1 C 7,0 C 7,1 km/h (2 Bft) 96,00 %
26/03/2019 00:14 7,0 C 82 % 1033,6 hPa 0,0 mm 4,5 km/h (1 Bft) N-NO 341 0 min 0 min 0,000 mm 0,0 UV-I 0 W/m 4,1 C 7,0 C 7,1 km/h (2 Bft) 100,00 %
26/03/2019 00:13 7,0 C 82 % 1033,5 hPa 0,0 mm 2,3 km/h (1 Bft) N-NO 348 0 min 0 min 0,000 mm 0,0 UV-I 0 W/m 4,1 C 7,0 C 5,3 km/h (1 Bft) 100,00 %
26/03/2019 00:12 7,0 C 82 % 1033,5 hPa 0,0 mm 3,2 km/h (1 Bft) N-NO 343 0 min 0 min 0,000 mm 0,0 UV-I 0 W/m 4,1 C 7,0 C 8,9 km/h (2 Bft) 100,00 %
26/03/2019 00:11 7,0 C 82 % 1033,5 hPa 0,0 mm 3,9 km/h (1 Bft) N-NO 333 0 min 0 min 0,000 mm 0,0 UV-I 0 W/m 4,1 C 7,0 C 5,3 km/h (1 Bft) 100,00 %
26/03/2019 00:10 6,9 C 82 % 1033,5 hPa 0,0 mm 5,8 km/h (2 Bft) N 355 0 min 0 min 0,000 mm 0,0 UV-I 0 W/m 4,0 C 6,9 C 12,4 km/h (2 Bft) 100,00 %
26/03/2019 00:09 7,0 C 82 % 1033,5 hPa 0,0 mm 4,2 km/h (1 Bft) N 355 0 min 0 min 0,000 mm 0,0 UV-I 0 W/m 4,1 C 7,0 C 5,3 km/h (1 Bft) 91,67 %
26/03/2019 00:08 6,9 C 82 % 1033,5 hPa 0,0 mm 5,5 km/h (2 Bft) N 355 0 min 0 min 0,000 mm 0,0 UV-I 0 W/m 4,0 C 6,9 C 8,9 km/h (2 Bft) 100,00 %
26/03/2019 00:07 7,0 C 82 % 1033,4 hPa 0,0 mm 6,9 km/h (2 Bft) N-NE 14 0 min 0 min 0,000 mm 0,0 UV-I 0 W/m 4,1 C 6,6 C 14,2 km/h (3 Bft) 100,00 %
26/03/2019 00:06 7,0 C 82 % 1033,4 hPa 0,0 mm 4,0 km/h (1 Bft) N 350 0 min 0 min 0,000 mm 0,0 UV-I 0 W/m 4,1 C 7,0 C 5,3 km/h (1 Bft) 96,15 %
26/03/2019 00:05 6,9 C 82 % 1033,4 hPa 0,0 mm 4,1 km/h (1 Bft) N 5 0 min 0 min 0,000 mm 0,0 UV-I 0 W/m 4,0 C 6,9 C 10,6 km/h (2 Bft) 98,04 %
26/03/2019 00:03 7,0 C 81 % 1033,4 hPa 0,0 mm 4,2 km/h (1 Bft) N-NE 15 0 min 0 min 0,000 mm 0,0 UV-I 0 W/m 4,0 C 7,0 C 8,9 km/h (2 Bft) 92,00 %
26/03/2019 00:02 7,0 C 81 % 1033,4 hPa 0,0 mm 3,7 km/h (1 Bft) N 9 0 min 0 min 0,000 mm 0,0 UV-I 0 W/m 4,0 C 7,0 C 5,3 km/h (1 Bft) 100,00 %
26/03/2019 00:01 7,0 C 81 % 1033,4 hPa 0,0 mm 4,4 km/h (1 Bft) N-NO 337 0 min 0 min 0,000 mm 0,0 UV-I 0 W/m 4,0 C 7,0 C 7,1 km/h (2 Bft) 89,47 %
26/03/2019 00:00 7,0 C 81 % 1033,4 hPa 0,0 mm 5,2 km/h (1 Bft) N 360 0 min 0 min 0,000 mm 0,0 UV-I 0 W/m 4,0 C 7,0 C 7,1 km/h (2 Bft) 100,00 %
_ Min-Heure 03:28 03:18 03:16 - 03:26 - - - - - - - 03:18 02:57 03:26 02:19
Minimum _ 6,7 C 78 % 1033,1 hPa - 0,8 km/h (0 Bft) - - - - - - - 3,2 C 2,1 C 1,8 km/h (1 Bft) 88,89 %
_ Max-Heure 00:25 00:05 00:49 00:00 02:57 - - 00:00 00:00 02:01 00:00 00:00 00:25 01:18 01:35 00:00
Maximum _ 7,1 C 82 % 1033,7 hPa 0,0 mm 13,4 km/h
N (3 Bft)
- - 0 min 0 min 0,026 mm 0,0 UV-I 0 W/m 4,2 C 7,1 C 17,7 km/h
NO (3 Bft)
100,00 %
Moyenne _ 7,0 C 80 % 1033,5 hPa #0,0 mm 6,3 km/h (2 Bft) N - #0 min. #0 min. #0,076 mm 0,0 UV-I 0 W/m 3,9 C 6,4 C 10,4 km/h (2 Bft) 98,06 %
Grandfresnoy - Oise - Picardie